Temperature
20 21 21 22 22 21 20 19 19 20 19 20 19 19 20 21 21 21 21 22 22 22 21 21 21 21 21 21 20 20 20 20 20 20 19 19 19 19 18 18 17 17 17 17
20 20 21 21 21 21 21 20 20 20 19 19 19 20 20 20 21 21 21 21 22 22 21 21 21 21 21 21 21 20 20 20 20 20 19 19 19 18 18 18 17 17 17 17
18 19 21 20 20 21 20 20 20 20 20 18 18 18 19 20 20 21 21 22 22 21 22 21 21 21 21 21 20 20 20 20 20 19 19 19 18 18 18 18 17 17 17 16
16 19 20 20 20 20 20 19 19 18 18 18 18 19 20 21 21 21 22 22 22 21 21 21 21 21 21 20 20 20 20 20 19 19 19 19 18 18 18 17 17 17 17 16
15 17 18 19 20 19 19 19 18 18 18 18 19 19 19 20 21 22 22 22 22 22 21 21 21 21 20 20 20 20 19 19 19 19 18 18 18 18 18 17 17 17 16 16
15 18 18 19 20 20 19 19 18 18 17 18 18 18 18 20 20 21 21 21 21 21 21 21 20 20 20 20 19 19 19 19 19 18 18 18 18 18 17 17 17 16 16 16
15 17 17 18 18 19 19 19 19 18 18 18 18 18 19 20 20 20 20 20 20 20 20 20 20 20 19 19 19 19 19 18 18 18 18 18 18 17 17 17 16 16 16 16
14 16 17 18 18 18 17 18 18 18 18 18 19 19 19 19 19 19 19 19 19 19 19 19 19 19 19 18 18 18 18 18 18 18 17 17 17 17 17 16 16 16 15 15
14 15 16 16 17 18 18 18 18 18 18 19 18 18 18 19 19 18 18 18 18 19 18 18 18 18 18 18 17 17 17 17 17 17 17 17 17 16 16 16 16 15 15 15
13 14 15 16 17 17 18 18 18 18 18 18 18 18 18 18 18 18 18 18 18 18 18 18 18 17 17 17 17 17 17 17 17 17 17 16 16 16 16 16 15 15 15 15
13 14 15 16 17 17 17 18 18 18 18 18 18 18 17 17 17 17 17 17 17 17 17 17 17 17 17 17 16 16 16 16 16 16 16 16 16 16 16 15 15 15 15 15
13 14 14 16 16 17 17 17 17 17 17 17 17 17 17 17 17 17 17 17 17 17 17 17 17 17 16 16 16 16 16 16 16 15 15 15 15 15 15 15 15 14 14 14
15 16 16 16 16 16 16 16 16 17 17 17 17 17 16 16 17 16 16 17 17 17 16 16 16 16 16 16 16 15 15 15 15 15 15 15 15 15 15 15 14 14 14 14
15 15 15 16 16 16 16 16 16 16 16 16 16 16 16 16 16 16 16 16 16 16 16 16 16 16 15 15 15 15 15 15 14 14 14 14 14 14 14 14 14 14 14 13
15 15 15 15 15 16 15 15 15 16 16 16 16 16 16 16 16 16 16 15 16 16 16 15 15 15 15 15 15 14 14 14 14 14 13 13 14 13 13 13 13 13 13 13
15 15 15 15 15 15 15 15 15 15 15 15 15 15 15 15 15 15 15 15 15 15 15 15 15 14 14 14 14 14 14 13 13 13 13 13 13 13 13 13 13 13 13 13
14 14 14 14 14 14 14 14 14 15 15 15 15 15 15 15 15 14 14 14 14 14 14 14 14 14 14 13 13 13 13 13 13 13 12 12 12 12 12 12 12 12 12 12
14 14 14 14 14 14 14 14 14 14 14 14 14 14 14 14 14 14 14 14 14 14 14 14 14 13 13 13 13 13 13 12 12 12 12 12 12 12 12 12 12 12 12 12
14 14 14 14 14 14 14 14 14 14 14 14 14 14 14 14 14 14 14 13 13 13 13 13 13 13 13 13 12 12 12 12 12 12 12 12 12 12 12 12 11 11 11 11
13 13 13 13 13 13 13 13 14 14 13 14 13 13 13 13 13 13 13 13 13 13 13 13 13 13 12 12 12 12 12 12 12 12 12 12 12 12 12 11 11 11 11 11
13 13 13 13 13 13 13 13 13 13 13 13 13 13 13 13 13 13 13 13 13 12 12 12 12 12 12 12 12 12 12 12 12 12 12 11 11 11 11 11 11 11 11 11
13 13 12 13 13 13 13 13 13 13 13 13 13 13 13 13 13 12 12 12 12 12 12 12 12 12 12 11 12 11 11 12 11 11 11 11 11 11 11 11 11 11 11 11
12 12 12 12 12 12 12 12 12 12 12 12 12 12 12 12 12 12 12 12 12 12 12 11 11 11 11 11 11 11 11 11 11 11 11 11 11 11 11 11 11 10 10 10
12 12 12 12 12 12 12 12 12 12 12 12 12 12 12 12 12 12 12 12 12 11 11 11 11 11 11 11 11 11 11 11 11 11 11 11 11 11 10 11 11 10 10 10
12 12 12 12 12 12 12 12 12 12 12 12 12 12 12 12 12 12 12 11 11 11 11 11 11 11 11 11 11 11 11 11 11 11 10 10 10 10 10 10 10 10 10 10
12 12 12 12 12 12 12 12 11 11 11 11 11 11 11 11 11 11 11 11 11 10 10 10 10 10 10 10 10 10 10 10 10 10 10 10 10 10 10 10 10 10 10 10
11 11 11 11 12 12 12 11 11 11 11 11 11 11 11 11 11 11 11 11 10 10 10 10 10 10 10 10 10 10 10 10 10 10 10 10 10 10 10 10 10 10 10 9
Wind_Speed
2 2 2 2 2 3 5 7 7 7 6 8 6 6 5 3 3 4 4 4 5 5 4 4 3 3 4 4 5 5 5 5 6 6 5 4 4 4 4 3 4 3 3 3
1 2 1 1 2 3 4 4 4 3 6 6 4 1 1 3 5 5 5 5 5 5 4 4 5 5 4 4 4 5 5 6 5 4 5 5 5 4 4 4 3 3 3 3
1 3 3 4 4 4 3 3 5 7 7 2 1 3 4 4 5 6 6 5 5 5 5 5 5 5 4 4 3 4 5 4 4 4 5 5 5 4 4 4 3 3 3 3
2 2 4 7 3 3 3 3 3 4 4 4 4 3 1 2 4 5 5 5 5 4 4 4 3 3 3 3 3 3 3 3 3 4 4 4 4 4 5 4 4 4 4 4
4 2 4 6 2 1 2 3 3 4 3 2 2 2 3 2 2 4 3 3 4 4 3 3 3 3 3 3 2 2 2 3 3 4 4 4 4 5 4 4 4 4 3 3
4 4 6 6 3 1 3 3 3 3 3 2 4 2 4 2 0 1 1 2 2 3 3 3 2 3 4 3 2 2 3 3 2 3 4 4 5 5 4 4 4 4 3 3
4 4 6 6 5 1 3 5 3 2 3 3 4 5 3 1 2 2 2 3 3 4 3 2 2 4 4 2 2 3 2 1 1 2 3 4 3 3 3 3 3 3 3 2
4 3 7 4 1 3 5 2 1 2 2 2 2 2 2 2 2 3 3 3 3 3 2 2 3 4 3 1 2 1 0 0 1 1 1 1 2 2 3 3 3 3 2 3
6 6 4 3 3 3 2 1 2 2 2 3 3 2 2 2 2 2 2 2 3 3 3 2 2 3 2 2 1 1 1 0 0 0 0 0 1 2 2 2 3 3 3 3
2 4 4 4 3 2 1 2 2 2 2 3 3 3 2 2 2 1 1 1 2 3 2 1 1 0 1 2 1 2 1 1 0 0 1 1 1 2 2 3 3 3 3 3
3 4 4 4 3 2 2 2 2 1 1 2 3 2 3 3 2 2 1 1 2 3 2 1 0 0 1 1 1 1 1 1 1 1 1 1 2 2 3 4 5 5 4 4
5 6 4 5 5 2 2 2 1 0 1 0 2 2 2 2 2 2 2 1 2 1 1 1 1 0 1 1 2 2 1 1 2 2 1 1 2 2 2 3 4 5 6 5
5 4 5 5 4 3 3 3 3 1 2 1 1 2 3 2 2 2 2 2 2 2 2 1 0 1 2 1 1 2 2 2 2 2 2 2 2 3 3 3 3 4 6 6
4 2 3 4 4 4 2 2 2 1 1 1 1 2 3 2 2 3 3 3 2 2 2 1 1 2 2 1 1 2 2 3 2 2 2 2 3 3 3 2 3 3 3 5
4 4 5 4 3 2 1 1 1 1 1 1 1 2 3 3 3 3 3 2 2 1 1 1 1 3 3 1 1 1 1 2 2 2 2 3 3 2 2 2 3 2 2 2
4 3 2 2 3 2 2 2 2 3 3 3 2 3 3 3 3 2 2 2 3 3 3 3 3 4 2 2 1 1 1 2 2 1 2 2 2 2 3 2 3 3 3 3
3 4 4 3 4 3 3 4 4 4 4 3 4 3 3 2 2 2 3 3 3 4 4 4 4 3 2 2 3 2 2 2 2 2 2 3 3 3 3 3 3 4 4 4
7 8 7 6 5 4 4 4 4 4 4 5 4 3 3 3 4 5 4 3 2 3 4 5 4 3 3 3 3 3 2 2 2 3 3 3 3 3 3 4 4 5 4 3
5 6 6 6 5 4 4 4 4 4 4 3 3 3 3 4 5 5 3 2 3 4 6 5 5 4 3 4 3 2 3 3 3 3 3 4 4 4 4 4 4 4 4 3
4 4 4 4 4 3 4 4 3 3 3 3 3 3 3 4 4 4 3 4 5 5 5 4 4 3 4 4 3 3 4 4 4 4 3 3 3 3 3 4 4 4 4 4
3 3 3 3 3 3 3 3 3 4 3 3 4 5 5 5 4 3 3 4 5 4 4 5 4 3 3 4 3 3 3 4 4 4 4 4 3 3 3 3 4 4 4 4
2 2 3 2 2 4 4 3 3 3 3 3 4 4 4 4 3 3 4 5 5 5 4 4 4 5 5 4 3 3 4 4 4 4 4 4 4 4 4 4 4 4 4 4
3 3 3 2 3 4 4 3 3 3 3 4 4 4 4 4 3 3 4 4 3 4 4 4 5 6 5 3 2 3 3 3 4 4 4 4 4 4 4 5 5 5 5 4
3 3 3 2 2 2 3 4 3 2 3 3 4 4 3 2 2 3 3 4 4 4 3 4 6 6 4 2 2 2 3 3 3 3 3 3 3 3 4 4 5 5 5 5
2 2 2 1 1 2 3 3 2 2 1 1 2 2 2 2 3 2 2 2 3 3 2 3 4 4 2 1 2 2 2 3 3 2 2 3 3 3 3 3 4 4 4 4
1 1 2 2 2 3 2 2 2 2 1 2 2 2 1 1 1 1 1 1 1 1 1 2 2 2 1 2 2 2 2 2 3 3 3 3 3 3 3 3 3 3 3 3
2 2 2 2 2 2 1 1 1 2 2 2 2 2 1 1 0 0 0 1 1 1 1 1 1 1 1 1 1 2 2 2 2 3 3 3 3 3 3 3 3 2 2 2
Wind_Direction
200 245 181 187 207 176 176 184 188 221 224 252 249 240 237 214 171 153 160 161 171 173 173 170 170 182 193 200 190 182 179 196 215 213 206 206 211 214 212 212 220 219 222 235
17 358 43 298 277 223 212 188 200 230 262 255 255 230 202 192 170 173 187 187 187 177 173 182 187 191 192 201 191 177 192 211 217 204 200 205 211 211 208 215 220 214 224 234
242 316 24 284 252 216 206 206 186 214 237 242 203 200 201 193 182 187 192 191 188 190 191 198 199 193 195 200 178 178 195 209 212 204 207 211 207 200 207 212 209 217 227 231
125 94 222 246 266 199 189 242 222 222 238 226 214 204 185 182 189 201 196 187 188 192 195 197 184 177 178 158 155 173 190 198 200 197 209 210 201 208 212 207 206 216 225 233
120 163 271 290 281 151 173 281 251 206 230 234 153 80 354 308 221 207 199 193 191 185 179 167 160 161 144 135 136 162 209 225 211 201 207 206 209 218 215 206 211 216 220 225
127 157 226 247 272 294 131 281 276 200 204 189 121 140 265 286 149 114 106 132 136 123 115 128 137 136 135 144 146 203 232 237 232 213 206 214 217 220 216 207 217 217 226 229
154 199 255 262 288 18 164 243 269 213 200 176 178 203 218 149 106 102 94 95 107 111 115 136 135 131 139 152 203 232 235 231 227 224 217 216 217 218 207 205 204 207 222 241
152 181 246 295 35 175 220 267 264 224 206 177 178 152 125 113 103 96 89 97 105 106 98 84 99 116 121 207 253 250 155 160 238 248 248 231 208 222 204 194 202 216 227 255
188 211 254 288 246 261 215 241 272 237 225 164 148 145 133 118 92 80 97 107 107 108 88 68 95 129 150 233 245 109 89 344 293 8 324 246 215 219 216 206 214 229 233 251
253 277 286 292 297 310 287 255 281 238 188 165 165 164 153 135 120 97 79 114 112 106 97 65 57 106 205 234 157 113 119 292 296 259 285 288 260 226 211 222 224 225 232 244
253 280 312 314 317 318 331 352 29 26 175 178 164 174 173 157 154 159 153 143 123 124 135 195 110 303 264 229 155 150 193 253 271 263 245 252 252 240 225 226 221 222 232 231
223 229 213 260 278 275 289 296 289 341 37 58 170 185 166 162 168 159 156 144 114 121 160 217 216 239 287 251 175 173 219 257 254 256 256 252 261 290 259 236 242 229 225 227
231 241 234 254 270 258 241 261 267 226 191 183 196 170 166 183 186 168 170 169 174 187 199 208 262 316 301 283 179 177 212 247 257 255 255 255 248 242 268 289 268 247 241 236
241 230 262 262 261 271 253 246 227 210 194 179 197 173 171 185 173 175 206 213 200 185 186 184 199 281 284 263 193 208 226 238 242 247 249 251 253 248 242 254 280 287 274 260
256 232 236 256 263 264 236 191 161 263 263 260 239 198 185 187 199 214 223 210 176 170 204 192 217 270 278 246 214 234 240 244 238 240 244 242 242 245 243 247 259 273 297 295
270 270 244 238 247 251 240 221 219 245 250 246 246 227 210 201 209 221 234 213 195 214 228 220 237 256 255 229 219 235 248 249 238 241 258 251 238 237 242 246 258 260 263 271
237 251 247 252 252 256 248 234 229 238 245 250 247 226 193 184 208 243 255 244 224 233 236 228 240 249 240 227 218 223 232 243 236 241 249 252 240 238 240 241 245 255 259 250
228 231 229 226 228 237 249 246 238 234 241 249 242 208 195 203 223 241 249 250 247 272 268 253 246 243 242 237 227 222 219 227 227 234 241 250 252 243 239 243 248 256 268 267
244 247 251 247 234 221 229 240 241 236 238 236 224 218 221 225 231 243 242 233 240 264 275 265 248 241 252 249 232 216 216 223 229 237 237 243 250 247 242 243 251 258 262 263
253 258 262 270 260 240 238 245 240 242 242 225 217 215 228 240 238 235 230 241 246 247 258 264 254 249 251 250 236 220 219 224 231 237 241 242 246 248 244 243 249 258 262 259
270 274 274 271 274 268 254 248 241 249 255 235 220 224 233 246 242 226 220 251 264 253 254 257 252 254 251 245 233 219 219 223 227 229 233 240 245 247 244 247 253 256 257 258
288 283 278 269 275 284 275 259 244 246 255 248 235 229 230 242 244 239 237 242 256 253 251 255 253 250 246 240 218 212 220 225 228 228 228 232 237 241 244 247 251 253 252 251
276 274 272 260 258 272 286 281 261 248 249 244 234 228 227 231 228 226 260 260 253 252 253 256 251 248 245 229 220 224 229 230 231 229 230 234 240 244 245 248 248 246 245 247
277 273 269 266 268 283 295 293 282 263 252 245 241 235 222 226 256 251 239 238 233 244 259 259 248 247 239 221 220 229 235 239 242 239 239 246 252 254 255 254 251 246 242 241
286 290 295 308 295 277 272 283 298 286 268 270 278 274 252 222 225 249 252 247 235 236 266 274 262 250 226 205 216 234 242 243 245 245 245 247 255 259 258 258 255 249 242 237
324 309 279 260 256 260 263 260 264 267 260 284 300 300 290 258 221 241 264 271 271 264 272 278 278 256 222 210 225 242 248 252 255 253 252 252 256 258 262 262 260 249 237 225
358 353 340 328 316 288 272 267 265 274 260 244 275 293 297 297 267 171 239 297 317 282 271 272 265 249 236 235 244 255 259 262 263 262 265 266 266 266 266 262 258 253 244 217
Height
1502 1499 1499 1500 1500 1502 1505 1509 1515 1510 1508 1499 1495 1493 1492 1492 1493 1495 1496 1498 1500 1503 1505 1507 1509 1512 1514 1516 1517 1518 1520 1521 1522 1523 1524 1526 1527 1527 1527 1528 1527 1527 1527 1527
1503 1500 1499 1500 1499 1499 1500 1501 1503 1503 1503 1493 1492 1492 1491 1491 1492 1494 1496 1497 1499 1501 1503 1506 1508 1510 1512 1513 1515 1516 1518 1518 1520 1520 1521 1522 1523 1524 1524 1524 1524 1524 1524 1524
1512 1505 1501 1508 1499 1498 1498 1497 1498 1501 1496 1491 1491 1491 1490 1491 1491 1492 1494 1496 1497 1499 1502 1504 1506 1507 1509 1511 1513 1514 1515 1516 1517 1517 1518 1519 1520 1521 1521 1521 1521 1521 1521 1520
1516 1510 1519 1504 1492 1492 1494 1494 1493 1492 1491 1490 1489 1489 1490 1490 1491 1492 1494 1495 1497 1499 1500 1502 1504 1506 1508 1509 1510 1511 1512 1512 1514 1515 1515 1516 1517 1517 1517 1518 1517 1517 1517 1517
1520 1520 1513 1499 1492 1492 1495 1495 1490 1490 1489 1488 1488 1490 1490 1490 1491 1491 1493 1494 1496 1497 1499 1500 1502 1504 1505 1507 1508 1509 1510 1510 1511 1512 1513 1513 1513 1514 1514 1514 1514 1514 1514 1514
1518 1517 1518 1500 1490 1489 1492 1497 1489 1488 1488 1488 1489 1494 1492 1490 1490 1490 1492 1493 1494 1496 1498 1499 1501 1502 1503 1504 1505 1506 1508 1508 1509 1509 1510 1510 1511 1511 1512 1511 1511 1511 1511 1510
1515 1515 1508 1493 1488 1488 1502 1497 1488 1487 1487 1487 1488 1489 1489 1489 1489 1490 1491 1492 1493 1495 1496 1498 1500 1501 1502 1503 1503 1504 1505 1506 1507 1508 1508 1508 1508 1508 1508 1508 1508 1507 1507 1507
1514 1514 1509 1489 1488 1492 1492 1487 1486 1486 1486 1486 1486 1486 1487 1488 1488 1489 1490 1492 1493 1494 1495 1497 1498 1500 1501 1502 1503 1503 1504 1504 1505 1505 1505 1505 1505 1505 1505 1505 1504 1504 1504 1503
1502 1501 1492 1488 1488 1487 1487 1486 1486 1486 1486 1486 1486 1486 1486 1487 1488 1489 1490 1491 1492 1493 1494 1495 1496 1498 1499 1500 1501 1501 1502 1502 1502 1502 1503 1502 1502 1502 1501 1501 1501 1500 1500 1499
1497 1492 1489 1487 1486 1486 1486 1485 1485 1485 1485 1486 1485 1485 1486 1486 1488 1489 1490 1491 1491 1492 1493 1493 1495 1497 1498 1499 1499 1499 1499 1499 1499 1499 1499 1499 1499 1498 1498 1498 1497 1497 1496 1496
1495 1490 1487 1485 1485 1485 1484 1484 1483 1484 1484 1485 1485 1485 1486 1486 1487 1488 1489 1490 1490 1490 1491 1492 1493 1495 1496 1497 1497 1497 1497 1496 1496 1496 1495 1496 1495 1495 1494 1494 1494 1493 1492 1492
1492 1487 1487 1485 1484 1484 1484 1483 1483 1483 1483 1484 1484 1484 1485 1486 1487 1488 1488 1489 1489 1489 1490 1491 1492 1492 1494 1494 1494 1494 1493 1493 1493 1493 1492 1492 1491 1491 1490 1491 1490 1489 1489 1489
1484 1484 1484 1483 1483 1483 1482 1481 1482 1482 1482 1482 1482 1483 1484 1485 1486 1487 1487 1488 1488 1489 1489 1489 1490 1490 1491 1492 1492 1491 1491 1490 1490 1489 1489 1488 1488 1487 1487 1486 1486 1485 1485 1485
1482 1482 1482 1480 1480 1480 1480 1480 1480 1481 1480 1480 1481 1482 1483 1483 1484 1484 1486 1486 1487 1487 1487 1488 1488 1488 1489 1489 1488 1488 1488 1487 1487 1486 1486 1485 1484 1484 1483 1482 1482 1481 1481 1481
1480 1480 1479 1478 1478 1478 1478 1479 1478 1478 1478 1479 1480 1480 1481 1481 1481 1482 1483 1484 1484 1485 1485 1485 1485 1486 1486 1485 1485 1484 1484 1483 1483 1483 1482 1482 1481 1480 1480 1479 1478 1477 1477 1478
1477 1477 1476 1476 1475 1475 1476 1476 1476 1476 1477 1477 1477 1478 1478 1478 1479 1479 1480 1481 1482 1481 1482 1482 1482 1482 1482 1482 1481 1480 1480 1480 1480 1479 1479 1478 1477 1476 1476 1476 1475 1474 1474 1473
1475 1474 1473 1473 1473 1472 1473 1473 1474 1474 1475 1475 1475 1475 1475 1476 1476 1477 1478 1478 1479 1478 1478 1478 1478 1478 1478 1478 1477 1477 1476 1476 1476 1476 1475 1474 1473 1473 1473 1473 1472 1471 1471 1470
1471 1471 1470 1470 1470 1470 1470 1470 1471 1471 1472 1472 1472 1472 1472 1472 1473 1473 1474 1474 1474 1474 1474 1474 1474 1474 1474 1474 1473 1472 1472 1472 1472 1471 1471 1471 1470 1470 1470 1469 1468 1468 1467 1467
1468 1467 1467 1467 1466 1467 1467 1467 1467 1468 1468 1468 1468 1468 1468 1469 1469 1469 1470 1470 1470 1469 1470 1470 1470 1470 1470 1469 1469 1469 1468 1468 1468 1468 1467 1467 1466 1466 1466 1465 1465 1464 1464 1463
1463 1464 1463 1463 1463 1463 1463 1464 1464 1464 1464 1465 1464 1465 1465 1466 1466 1466 1465 1465 1465 1466 1466 1466 1465 1465 1465 1465 1465 1465 1465 1464 1464 1464 1464 1463 1463 1462 1462 1461 1461 1460 1460 1460
1460 1460 1460 1460 1460 1461 1461 1461 1460 1460 1460 1461 1461 1461 1461 1461 1462 1462 1461 1461 1461 1462 1462 1461 1461 1461 1461 1461 1461 1461 1461 1460 1460 1460 1460 1459 1459 1458 1458 1457 1457 1456 1456 1455
1456 1456 1456 1457 1457 1458 1458 1458 1458 1457 1457 1457 1457 1457 1457 1457 1457 1457 1457 1457 1457 1458 1457 1457 1457 1456 1457 1456 1456 1456 1456 1456 1456 1456 1456 1455 1455 1454 1454 1453 1453 1452 1452 1451
1454 1453 1453 1454 1454 1455 1455 1455 1454 1454 1454 1454 1454 1453 1453 1453 1453 1453 1453 1454 1454 1454 1453 1453 1452 1452 1452 1452 1452 1452 1452 1452 1453 1452 1452 1452 1451 1451 1450 1449 1449 1448 1448 1447
1451 1451 1451 1451 1452 1452 1452 1452 1451 1451 1451 1451 1451 1451 1450 1450 1450 1450 1450 1450 1450 1450 1449 1449 1449 1448 1449 1449 1448 1449 1449 1449 1449 1449 1448 1448 1447 1447 1446 1446 1445 1444 1443 1443
1449 1449 1449 1450 1450 1450 1450 1449 1449 1449 1449 1449 1448 1448 1448 1448 1447 1447 1447 1447 1447 1446 1446 1445 1445 1445 1446 1446 1446 1446 1446 1446 1445 1445 1445 1444 1444 1443 1443 1442 1441 1440 1439 1439
1449 1449 1449 1449 1449 1448 1448 1447 1447 1447 1446 1446 1446 1445 1445 1445 1445 1445 1444 1444 1444 1444 1443 1443 1443 1443 1443 1443 1443 1443 1443 1443 1442 1442 1442 1441 1440 1440 1439 1438 1437 1437 1436 1436
1449 1449 1448 1448 1448 1447 1447 1446 1445 1445 1445 1444 1444 1444 1444 1444 1443 1443 1442 1442 1442 1442 1441 1441 1441 1441 1441 1441 1441 1441 1440 1440 1439 1439 1438 1438 1437 1436 1435 1435 1434 1434 1433 1433